Lid_Strength_Index
-1 -1 -0 2 7 7 11 10 7 8 8 5 5 6 7 6 8 10 1 -0 -1 -1 -1 -1 -2 -2 -2 -2 -2 -2 -2 -2 -2 -2 -2 -2 -2 -2 -2 -2 -2 -2 -2 -2 -2 -2 -2 -2 -2
-1 1 2 3 9 11 11 8 9 7 6 5 5 6 7 8 4 4 2 -0 -1 -1 -1 -1 -1 -1 -1 -2 -2 -2 -2 -2 -2 -2 -2 -2 -2 -2 -2 -2 -2 -2 -2 -2 -2 -2 -2 -2 -2
-0 2 4 6 8 11 10 8 7 7 5 5 6 5 6 7 4 3 0 -0 -1 -1 -1 -1 -1 -1 -1 -1 -1 -2 -2 -2 -2 -2 -2 -2 -2 -2 -2 -2 -2 -2 -2 -2 -2 -2 -2 -2 -2
2 2 3 8 10 9 8 7 6 7 6 5 5 7 4 2 3 1 -0 -1 -0 -1 -1 -1 -2 -2 -1 -1 -1 -2 -2 -2 -2 -2 -2 -2 -2 -2 -2 -2 -1 -2 -2 -2 -2 -2 -2 -1 -2
2 3 8 10 10 8 7 6 6 7 6 6 5 8 6 3 1 0 0 -0 -0 -1 -1 -1 -1 -2 -2 -2 -1 -2 -2 -2 -2 -2 -2 -2 -2 -2 -2 -2 -2 -2 -2 -2 -2 -2 -2 -2 -2
5 4 9 11 10 8 6 5 5 6 5 6 6 6 6 2 1 1 -0 -0 -1 -0 -1 -1 0 -1 -1 -2 -2 -2 -1 -2 -2 -2 -2 -2 -2 -2 -2 -1 -1 -1 -1 -1 -1 -1 -1 -1 -1
6 7 9 9 10 9 7 5 6 6 6 6 4 7 5 3 1 0 -0 -0 -1 -1 -1 -1 -1 -1 1 -1 -1 -1 -2 -2 -2 -2 -2 -2 -2 -2 -2 -2 -1 -1 -0 -1 -1 -1 -0 -0 -1
4 6 10 9 10 10 6 5 5 5 6 3 3 7 7 3 1 0 0 -0 -0 -1 -1 -1 -1 -1 -1 -2 0 -0 -1 -1 -1 -1 -1 -1 -1 -1 -2 -1 -2 -1 -1 -1 -0 -1 -1 -1 -1
6 8 10 10 9 8 6 7 5 4 5 5 4 4 3 2 1 1 1 1 1 0 -0 -1 -1 -1 -1 -1 -0 1 1 0 -0 -0 0 -0 -2 -2 -1 -0 -1 -1 -2 -1 -1 -1 -2 -2 -2
7 9 9 7 6 7 6 6 6 6 6 6 5 3 2 2 2 3 3 3 2 1 0 -1 -1 -1 -1 -1 -1 -1 -1 -2 -1 -1 -1 -1 -1 -2 -1 0 0 -1 -1 -1 -1 -2 -2 -1 -2
8 9 8 7 6 6 6 6 5 6 7 5 6 5 3 3 3 3 2 2 2 1 0 -0 -1 -1 -1 -1 -1 -1 -1 -1 -2 -2 -2 -1 -1 -2 -2 -2 -1 -2 1 -1 -1 -1 -1 -1 -1
9 8 7 7 7 6 7 5 6 6 5 4 3 3 3 4 3 3 3 2 2 1 0 -0 -1 -1 -1 -1 -1 -1 -1 -1 -1 -1 -1 -1 -1 -1 -1 -1 -1 -1 -1 -1 -1 -1 -1 -1 -1
9 9 7 7 7 7 6 7 6 6 5 3 3 3 4 3 3 2 2 1 1 1 1 0 -1 -1 -1 -1 -1 -1 -1 -1 -1 -1 -1 -1 -1 -1 -1 -1 -1 -1 -2 -1 -1 -1 -1 -1 -1
9 8 7 7 7 7 7 7 6 5 4 5 4 4 4 3 3 2 2 2 2 1 1 -0 -0 -1 -1 -1 -1 -1 -1 -1 -1 -1 -1 -1 -1 -1 -1 -1 -1 -1 -1 -1 -1 -1 -1 -1 -1
9 10 9 8 7 8 7 8 8 6 5 5 5 4 4 3 3 3 2 2 1 1 0 0 -0 -1 -1 -1 -1 -1 -1 -1 -1 -1 -1 -1 -1 -1 -1 -1 -1 -1 -1 -1 -1 -1 -1 -1 -1
11 11 12 10 8 8 7 11 7 6 5 6 5 5 4 4 3 2 2 1 1 1 1 0 -0 -0 -0 -1 -1 -1 -1 -1 -1 -1 -1 -1 -1 -1 -1 -1 -1 -1 -1 -1 -0 -0 0 0 0
13 15 13 12 9 8 8 10 8 7 6 6 5 5 4 4 3 2 2 1 1 1 1 1 0 1 -0 -1 -1 -1 1 2 -0 -1 -1 -1 -1 -1 -1 -1 -1 -1 -1 -1 -1 -0 -0 1 0
14 15 14 13 12 10 10 9 9 8 7 6 5 5 5 4 4 2 2 1 1 1 1 1 3 3 2 2 2 2 2 1 1 0 -0 -1 -1 -1 -1 -1 -1 -1 -1 -0 -0 -0 -0 0 0
12 13 13 13 12 12 10 10 8 8 8 8 7 5 5 4 3 2 2 1 2 2 3 4 4 4 3 2 2 2 2 1 0 -0 0 -1 -1 -1 -1 -1 -1 -1 -0 -0 -0 0 0 0 -0
12 14 14 14 13 12 13 12 10 10 9 8 7 6 6 5 4 4 4 3 3 3 3 4 4 4 4 3 2 2 2 0 0 1 1 1 -1 -1 -1 -1 -0 -1 -0 -0 -0 0 1 0 -0
13 13 14 14 14 13 14 13 12 10 10 9 8 7 6 6 5 5 4 4 4 5 4 4 4 4 4 4 3 2 1 1 2 2 2 3 2 1 0 -0 -0 0 -0 0 -0 -0 1 2 0
14 12 12 13 13 15 14 16 12 12 12 11 10 8 7 6 6 6 5 5 5 4 4 4 4 4 4 4 4 3 3 3 2 2 4 4 4 4 4 3 3 3 2 1 1 1 -0 0 2
12 11 12 13 13 14 15 16 14 14 13 12 10 9 8 7 7 7 6 6 6 5 5 5 5 5 6 5 4 3 3 3 3 5 5 6 6 6 7 6 5 5 4 3 3 2 1 1 1
11 12 12 12 13 18 15 16 15 14 14 12 11 10 10 9 8 8 7 8 8 7 6 5 6 6 6 6 5 4 3 3 5 5 5 6 6 7 7 7 7 6 5 4 4 4 4 3 3
11 13 17 18 19 20 16 17 15 13 13 12 11 11 10 9 9 9 8 8 8 8 7 7 6 7 7 6 5 4 3 3 3 5 5 6 7 7 8 8 7 6 6 6 6 6 6 5 4
11 13 16 20 20 18 16 19 16 12 11 10 10 10 9 9 8 8 8 8 8 8 8 7 8 8 8 7 6 6 4 4 4 5 5 6 6 7 8 8 7 8 7 7 7 7 7 6 6
11 14 11 15 18 17 16 15 13 12 11 10 10 10 9 8 8 7 7 8 7 8 8 8 8 8 8 8 7 7 6 6 6 6 6 6 7 8 8 8 8 8 8 7 7 7 7 7 7
10 10 14 14 18 20 18 17 16 13 12 11 11 10 9 8 7 7 7 7 7 7 7 8 8 8 8 8 8 8 8 7 6 7 7 8 8 9 8 9 9 9 8 8 8 8 8 8 8
11 12 12 12 14 17 19 17 12 12 11 11 10 8 8 7 7 7 6 7 7 7 7 8 8 8 9 9 9 9 9 9 9 9 9 9 9 9 9 9 9 9 9 9 8 8 9 9 10
9 10 11 14 17 14 16 16 11 10 10 9 9 9 7 7 6 6 6 7 7 7 8 8 8 8 8 9 10 10 10 10 10 10 10 10 10 10 10 10 10 10 10 10 10 10 11 11 12